TimeEST,TemperatureF,Dew PointF,Humidity,Sea Level PressureIn,VisibilityMPH,Wind Direction,Wind SpeedMPH,Gust SpeedMPH,PrecipitationIn,Events,Conditions,WindDirDegrees,DateUTC
12:53 AM,24.1,12.0,60,30.20,10.0,South,3.5,-,N/A,,Clear,180,2013-02-19 05:53:00
1:53 AM,21.9,10.0,60,30.18,10.0,Calm,Calm,-,N/A,,Mostly Cloudy,0,2013-02-19 06:53:00
2:53 AM,21.9,10.0,60,30.15,10.0,Calm,Calm,-,N/A,,Mostly Cloudy,0,2013-02-19 07:53:00
3:53 AM,21.9,14.0,72,30.15,10.0,Calm,Calm,-,N/A,,Mostly Cloudy,0,2013-02-19 08:53:00
4:53 AM,26.1,16.0,66,30.14,10.0,Calm,Calm,-,N/A,,Mostly Cloudy,0,2013-02-19 09:53:00
5:53 AM,23.0,16.0,74,30.12,10.0,Calm,Calm,-,N/A,,Clear,0,2013-02-19 10:53:00
6:53 AM,23.0,16.0,74,30.10,10.0,Calm,Calm,-,N/A,,Clear,0,2013-02-19 11:53:00
7:53 AM,24.1,17.1,75,30.09,10.0,Calm,Calm,-,N/A,,Clear,0,2013-02-19 12:53:00
8:53 AM,33.1,21.0,61,30.08,10.0,Calm,Calm,-,N/A,,Clear,0,2013-02-19 13:53:00
9:53 AM,37.9,28.0,68,30.04,10.0,Variable,3.5,-,N/A,,Clear,0,2013-02-19 14:53:00
10:53 AM,42.1,30.0,62,30.01,10.0,SSE,9.2,-,N/A,,Clear,160,2013-02-19 15:53:00
11:53 AM,43.0,30.0,60,29.96,10.0,South,12.7,19.6,N/A,,Clear,170,2013-02-19 16:53:00
2:53 PM,44.1,35.1,71,29.85,8.0,South,16.1,-,0.00,Rain,Light Rain,190,2013-02-19 19:53:00
3:53 PM,42.1,37.9,85,29.83,7.0,South,8.1,-,0.02,Rain,Light Rain,170,2013-02-19 20:53:00
4:46 PM,41.0,39.2,93,29.77,6.0,SSE,6.9,-,0.00,Rain,Light Rain,150,2013-02-19 21:46:00
4:53 PM,41.0,39.0,93,29.76,6.0,SSE,4.6,-,0.01,Rain,Light Rain,160,2013-02-19 21:53:00
5:53 PM,41.0,39.9,96,29.73,4.0,South,5.8,-,0.03,Rain,Light Rain,180,2013-02-19 22:53:00
7:38 PM,42.8,41.0,93,29.68,7.0,SSW,3.5,-,0.01,Rain,Light Rain,210,2013-02-20 00:38:00
7:53 PM,42.1,41.0,96,29.68,8.0,SSW,4.6,-,0.01,Rain,Light Rain,200,2013-02-20 00:53:00
8:20 PM,42.8,41.0,93,29.66,6.0,Calm,Calm,-,0.00,Rain,Light Rain,0,2013-02-20 01:20:00
8:41 PM,41.0,41.0,100,29.65,1.8,Calm,Calm,-,0.00,,Overcast,0,2013-02-20 01:41:00
8:51 PM,37.4,37.4,100,29.64,0.5,Calm,Calm,-,0.00,Fog,Fog,0,2013-02-20 01:51:00
8:53 PM,37.9,37.9,100,29.65,0.2,SE,3.5,-,0.00,Fog,Fog,140,2013-02-20 01:53:00
9:13 PM,39.2,39.2,100,29.66,0.2,South,4.6,-,N/A,Fog,Fog,190,2013-02-20 02:13:00
9:24 PM,41.0,39.2,93,29.66,2.0,SSW,3.5,-,N/A,,Overcast,200,2013-02-20 02:24:00
9:32 PM,41.0,39.2,93,29.66,3.0,SSW,3.5,-,0.00,Rain,Light Rain,200,2013-02-20 02:32:00
9:53 PM,41.0,39.9,96,29.64,6.0,WSW,4.6,-,0.00,Rain,Light Rain,250,2013-02-20 02:53:00
10:53 PM,42.1,37.9,85,29.62,10.0,SW,4.6,-,0.00,,Overcast,220,2013-02-20 03:53:00
11:53 PM,41.0,35.1,79,29.62,10.0,WSW,5.8,-,N/A,,Overcast,250,2013-02-20 04:53:00